Météo par heure à Jutrkow

Ce jour, 20 Juin, Dimanche

Heure Température Précipitation Vent Pression Humidité
00:00 +21°C° 0 mm 3 m/s 746 mmHg 81%
01:00 +21°C° 0 mm 3 m/s 746 mmHg 84%
02:00 +20°C° 0 mm 3 m/s 745 mmHg 84%
03:00 +20°C° 0 mm 3 m/s 745 mmHg 83%
04:00 +19°C° 0 mm 3 m/s 745 mmHg 83%
05:00 +21°C° 0 mm 4 m/s 745 mmHg 78%
06:00 +22°C° 0 mm 4 m/s 745 mmHg 72%
07:00 +25°C° 0 mm 4 m/s 745 mmHg 67%
08:00 +26°C° 0 mm 4 m/s 745 mmHg 61%
09:00 +27°C° 0 mm 4 m/s 745 mmHg 55%
10:00 +29°C° 0 mm 5 m/s 745 mmHg 49%
11:00 +30°C° 0 mm 4 m/s 745 mmHg 47%
12:00 +30°C° 0 mm 4 m/s 745 mmHg 44%
13:00 +32°C° 0 mm 4 m/s 744 mmHg 42%
14:00 +32°C° 0 mm 4 m/s 744 mmHg 42%
15:00 +32°C° 0 mm 4 m/s 744 mmHg 42%
16:00 +31°C° 0 mm 3 m/s 744 mmHg 42%
17:00 +30°C° 0 mm 3 m/s 743 mmHg 50%
18:00 +28°C° 0 mm 3 m/s 743 mmHg 58%
19:00 +26°C° 0 mm 3 m/s 743 mmHg 66%
20:00 +25°C° 0 mm 3 m/s 743 mmHg 68%
21:00 +24°C° 0 mm 3 m/s 743 mmHg 71%
22:00 +22°C° 0 mm 3 m/s 743 mmHg 74%
23:00 +21°C° 0 mm 3 m/s 743 mmHg 76%

Demain, 21 Juin, Lundi

Heure Température Précipitation Vent Pression Humidité
00:00 +20°C° 0 mm 3 m/s 742 mmHg 77%
01:00 +20°C° 0 mm 3 m/s 742 mmHg 79%
02:00 +19°C° 0 mm 3 m/s 742 mmHg 83%
03:00 +19°C° 0 mm 3 m/s 742 mmHg 86%
04:00 +19°C° 0 mm 4 m/s 741 mmHg 90%
05:00 +20°C° 0 mm 4 m/s 741 mmHg 83%
06:00 +22°C° 0 mm 4 m/s 742 mmHg 77%
07:00 +25°C° 0 mm 5 m/s 742 mmHg 70%
08:00 +26°C° 0 mm 4 m/s 742 mmHg 64%
09:00 +28°C° 0 mm 4 m/s 742 mmHg 59%
10:00 +29°C° 0 mm 4 m/s 741 mmHg 53%
11:00 +31°C° 0 mm 3 m/s 741 mmHg 49%
12:00 +32°C° 0 mm 2 m/s 741 mmHg 46%
13:00 +34°C° 0 mm 2 m/s 741 mmHg 42%
14:00 +34°C° 0 mm 2 m/s 740 mmHg 41%
15:00 +34°C° 0 mm 2 m/s 740 mmHg 40%
16:00 +34°C° 0 mm 2 m/s 740 mmHg 39%
17:00 +30°C° 1 mm 4 m/s 740 mmHg 55%
18:00 +26°C° 1 mm 5 m/s 741 mmHg 70%
19:00 +22°C° 1 mm 6 m/s 741 mmHg 86%
20:00 +21°C° 2 mm 5 m/s 741 mmHg 87%
21:00 +20°C° 2 mm 3 m/s 741 mmHg 89%
22:00 +20°C° 2 mm 2 m/s 741 mmHg 90%
23:00 +20°C° 0.5 mm 2 m/s 742 mmHg 91%

Après-demain, 22 Juin, Mardi

Heure Température Précipitation Vent Pression Humidité
00:00 +20°C° 0.5 mm 1 m/s 742 mmHg 93%
01:00 +20°C° 0.5 mm 1 m/s 742 mmHg 94%
02:00 +19°C° 0 mm 2 m/s 742 mmHg 94%
03:00 +19°C° 0 mm 2 m/s 742 mmHg 95%
04:00 +18°C° 0 mm 3 m/s 742 mmHg 95%
05:00 +19°C° 0 mm 3 m/s 743 mmHg 92%
06:00 +20°C° 0 mm 3 m/s 743 mmHg 88%
07:00 +21°C° 0 mm 3 m/s 744 mmHg 85%
08:00 +22°C° 0 mm 3 m/s 744 mmHg 81%
09:00 +24°C° 0 mm 3 m/s 744 mmHg 77%
10:00 +23°C° 0 mm 4 m/s 744 mmHg 73%
11:00 +25°C° 0 mm 3 m/s 744 mmHg 70%
12:00 +26°C° 0 mm 3 m/s 745 mmHg 66%
13:00 +27°C° 0 mm 3 m/s 745 mmHg 62%
14:00 +27°C° 0 mm 2 m/s 745 mmHg 60%
15:00 +28°C° 0 mm 2 m/s 745 mmHg 59%
16:00 +28°C° 0 mm 2 m/s 745 mmHg 57%
17:00 +27°C° 0 mm 2 m/s 745 mmHg 62%
18:00 +26°C° 0 mm 2 m/s 745 mmHg 66%
19:00 +26°C° 0 mm 2 m/s 745 mmHg 71%
20:00 +24°C° 0 mm 2 m/s 745 mmHg 74%
21:00 +22°C° 0 mm 3 m/s 745 mmHg 77%
22:00 +21°C° 0 mm 3 m/s 745 mmHg 80%
23:00 +21°C° 0 mm 3 m/s 744 mmHg 81%

23 Juin, Mercredi

Heure Température Précipitation Vent Pression Humidité
00:00 +20°C° 0 mm 3 m/s 744 mmHg 82%
01:00 +20°C° 0 mm 3 m/s 744 mmHg 84%
02:00 +19°C° 0.9 mm 2 m/s 744 mmHg 88%
03:00 +19°C° 0.9 mm 2 m/s 744 mmHg 92%
04:00 +19°C° 0.9 mm 2 m/s 744 mmHg 96%
05:00 +20°C° 1 mm 2 m/s 745 mmHg 94%
06:00 +20°C° 1 mm 2 m/s 745 mmHg 93%
07:00 +21°C° 1 mm 2 m/s 745 mmHg 91%
08:00 +24°C° 0.1 mm 2 m/s 745 mmHg 85%
09:00 +25°C° 0.1 mm 2 m/s 745 mmHg 79%
10:00 +27°C° 0.1 mm 3 m/s 745 mmHg 73%
11:00 +27°C° 0 mm 3 m/s 745 mmHg 71%
12:00 +27°C° 0 mm 4 m/s 746 mmHg 68%
13:00 +27°C° 0 mm 5 m/s 746 mmHg 66%
14:00 +27°C° 0 mm 5 m/s 746 mmHg 63%
15:00 +27°C° 0 mm 5 m/s 747 mmHg 61%
16:00 +27°C° 0 mm 5 m/s 747 mmHg 58%
17:00 +25°C° 0 mm 5 m/s 747 mmHg 63%
18:00 +22°C° 0 mm 5 m/s 747 mmHg 69%
19:00 +21°C° 0 mm 5 m/s 748 mmHg 74%
20:00 +19°C° 0 mm 5 m/s 748 mmHg 77%
21:00 +17°C° 0 mm 4 m/s 748 mmHg 80%
22:00 +15°C° 0 mm 4 m/s 749 mmHg 83%
23:00 +14°C° 0 mm 3 m/s 749 mmHg 86%

24 Juin, Jeudi

Heure Température Précipitation Vent Pression Humidité
00:00 +14°C° 0 mm 2 m/s 749 mmHg 89%
01:00 +14°C° 0 mm 2 m/s 749 mmHg 93%
02:00 +14°C° 0 mm 2 m/s 749 mmHg 94%
03:00 +13°C° 0 mm 2 m/s 749 mmHg 95%
04:00 +13°C° 0 mm 2 m/s 749 mmHg 96%
05:00 +15°C° 0 mm 2 m/s 749 mmHg 90%
06:00 +16°C° 0 mm 2 m/s 749 mmHg 84%
07:00 +17°C° 0 mm 2 m/s 750 mmHg 78%
08:00 +19°C° 0 mm 2 m/s 750 mmHg 73%
09:00 +20°C° 0 mm 2 m/s 750 mmHg 67%
10:00 +23°C° 0 mm 2 m/s 750 mmHg 62%
11:00 +24°C° 0 mm 1 m/s 749 mmHg 59%
12:00 +25°C° 0 mm 1 m/s 749 mmHg 57%
13:00 +26°C° 0 mm 1 m/s 749 mmHg 54%
14:00 +27°C° 0 mm 2 m/s 748 mmHg 54%
15:00 +27°C° 0 mm 2 m/s 748 mmHg 54%
16:00 +28°C° 0 mm 2 m/s 747 mmHg 54%
17:00 +26°C° 0.6 mm 3 m/s 747 mmHg 63%
18:00 +25°C° 0.6 mm 3 m/s 746 mmHg 72%
19:00 +24°C° 0.6 mm 3 m/s 745 mmHg 80%
20:00 +21°C° 6.9 mm 3 m/s 745 mmHg 85%
21:00 +20°C° 6.9 mm 4 m/s 745 mmHg 90%
22:00 +19°C° 6.9 mm 4 m/s 745 mmHg 95%
23:00 +19°C° 0.4 mm 4 m/s 745 mmHg 96%

25 Juin, Vendredi

Heure Température Précipitation Vent Pression Humidité
00:00 +19°C° 0.4 mm 3 m/s 745 mmHg 96%
01:00 +19°C° 0.4 mm 3 m/s 745 mmHg 97%
02:00 +18°C° 0.3 mm 4 m/s 745 mmHg 97%
03:00 +18°C° 0.3 mm 4 m/s 745 mmHg 97%
04:00 +16°C° 0.3 mm 5 m/s 745 mmHg 97%
05:00 +16°C° 0.1 mm 5 m/s 746 mmHg 97%
06:00 +15°C° 0.1 mm 6 m/s 747 mmHg 96%
07:00 +15°C° 0.1 mm 6 m/s 747 mmHg 96%
08:00 +16°C° 0 mm 6 m/s 748 mmHg 89%
09:00 +17°C° 0 mm 6 m/s 748 mmHg 82%
10:00 +19°C° 0 mm 6 m/s 748 mmHg 75%
11:00 +20°C° 0 mm 6 m/s 749 mmHg 72%
12:00 +20°C° 0 mm 5 m/s 749 mmHg 69%
13:00 +21°C° 0 mm 5 m/s 749 mmHg 66%
14:00 +20°C° 0 mm 4 m/s 749 mmHg 68%
15:00 +20°C° 0 mm 4 m/s 749 mmHg 69%
16:00 +20°C° 0 mm 3 m/s 749 mmHg 71%
17:00 +19°C° 0 mm 3 m/s 749 mmHg 73%
18:00 +19°C° 0 mm 3 m/s 749 mmHg 76%
19:00 +18°C° 0 mm 2 m/s 749 mmHg 78%
20:00 +17°C° 0 mm 2 m/s 749 mmHg 81%
21:00 +16°C° 0 mm 1 m/s 750 mmHg 84%
22:00 +15°C° 0 mm 1 m/s 750 mmHg 87%
23:00 +15°C° 0 mm 1 m/s 750 mmHg 88%
Voir plus

Nous avons besoin de votre consentement

Meteoprog et ses fournisseurs de services peuvent stocker et accéder à des données personnelles telles que des cookies, des identifiants d'appareils ou d'autres technologies similaires sur votre appareil et traiter ces données pour personnaliser le contenu et les publicités, ainsi que pour fournir des fonctionnalités de médias sociaux et analyser le trafic.

  • Stocker et/ou accéder à des informations sur votre appareil

    Des cookies, des identifiants d'appareils ou d'autres informations peuvent être stockés ou accessibles sur votre appareil aux fins indiquées ci-dessus.

  • Annonces et contenus personnalisés, mesure des annonces et des contenus, connaissance de l'audience et développement de produits

    Les annonces et le contenu peuvent être personnalisés en fonction d'un profil. D'autres données peuvent être ajoutées pour mieux personnaliser les annonces et le contenu. Les performances des publicités et du contenu peuvent être mesurées. Il est possible d'obtenir des informations sur le public qui a vu les publicités et le contenu. Ces données peuvent être utilisées pour développer ou améliorer l'expérience de l'utilisateur, les systèmes et les logiciels.

En cliquant sur "J'accepte", vous autorisez l'utilisation de cookies, des identifiants d'appareils, des balises web ou d'autres technologies similaires. Vos paramètres peuvent être modifiés dans le navigateur de votre appareil.

Dans certains cas, des intérêts légitimes peuvent être invoqués plutôt qu'un consentement. Vous pouvez en savoir plus à ce sujet dans notre Politique de confidentialité et de cookies.